Weather History for Asheville, NC

Change the Weather History Date:

Tuesday, May 22, 2007

  Actual Average Record
Temperature  
Mean Temperature 63 °F 65 °F  
Max Temperature 82 °F 76 °F 93 °F (1941)
Min Temperature 44 °F 53 °F 37 °F (2002)
Degree Days  
Heating Degree Days 2 3  
Month to date heating degree days 81 93  
Since 1 July heating degree days 4022 4165  
Cooling Degree Days 0 2  
Month to date cooling degree days 21 28  
Year to date cooling degree days 22 36  
Growing Degree Days 14 (Base 50)    
Moisture  
Dew Point 45 °F    
Average Humidity 55    
Maximum Humidity 86    
Minimum Humidity 23    
Precipitation  
Precipitation 0.00 in 0.12 in 2.15 in (1901)
Month to date precipitation 0.96 2.55  
Year to date precipitation 11.82 17.14  
Snow  
Snow 0.00 in 0.00 in 0.00 in ()
Month to date snowfall 0.0 0.0  
Since 1 July snowfall 3.2 9.9  
Snow Depth -    
Sea Level Pressure  
Sea Level Pressure 30.21 in    
Wind  
Wind Speed 3 mph (SSE)    
Max Wind Speed 16 mph    
Max Gust Speed 20 mph    
Visibility 10 miles    
Events      
T = Trace of Precipitation, MM = Missing Value Source: NWS Daily Summary

Daily Weather History Graph

Daily Weather History Graph

Search for Another Location

Airport:

Trip Planner

Search our weather history database for the weather conditions in past years. The results will help you decide how hot, cold, wet, or windy it might be!

Date:

Astronomy

May. 22, 2007 Rise Set
Actual Time 6:21 AM EDT 8:32 PM EDT
Civil Twilight 5:52 AM EDT 9:01 PM EDT
Nautical Twilight 5:17 AM EDT 9:37 PM EDT
Astronomical Twilight 4:39 AM EDT 10:15 PM EDT
Moon 12:00 PM EDT (5/22) 1:30 AM EDT (5/22)
Length of Visible Light 15h 09m
Length of Day
14h 11m
Waxing Crescent, 38% of the Moon is Illuminated
May 22
Waxing Crescent
May 23
First Quarter
May 31
Full
Jun 8
Last Quarter
Jun 14
New

Hourly Weather History & Observations

Time (EDT) Temp. Dew Point Humidity Pressure Visibility Wind Dir Wind Speed Gust Speed Precip Events Conditions
12:54 AM 53.1 °F 44.1 °F 71% 30.17 in 10.0 mi Calm Calm - N/A   Clear
1:54 AM 52.0 °F 46.0 °F 80% 30.17 in 10.0 mi Calm Calm - N/A   Clear
2:54 AM 50.0 °F 46.0 °F 86% 30.17 in 10.0 mi Calm Calm - N/A   Clear
3:54 AM 48.0 °F 44.1 °F 86% 30.16 in 10.0 mi Calm Calm - N/A   Clear
4:54 AM 46.9 °F 43.0 °F 86% 30.18 in 10.0 mi Calm Calm - N/A   Clear
5:54 AM 46.0 °F 42.1 °F 86% 30.19 in 10.0 mi Calm Calm - N/A   Clear
6:54 AM 46.0 °F 42.1 °F 86% 30.21 in 10.0 mi Calm Calm - N/A   Clear
7:54 AM 52.0 °F 45.0 °F 77% 30.23 in 10.0 mi Calm Calm - N/A   Clear
8:54 AM 60.1 °F 44.1 °F 55% 30.24 in 10.0 mi Calm Calm - N/A   Clear
9:54 AM 66.0 °F 45.0 °F 47% 30.24 in 10.0 mi Calm Calm - N/A   Clear
10:54 AM 71.1 °F 48.0 °F 44% 30.25 in 10.0 mi Variable 3.5 mph - N/A   Clear
11:54 AM 75.9 °F 44.1 °F 32% 30.24 in 10.0 mi Variable 5.8 mph - N/A   Clear
12:54 PM 80.1 °F 43.0 °F 27% 30.23 in 10.0 mi South 9.2 mph - N/A   Clear
1:54 PM 80.1 °F 41.0 °F 25% 30.22 in 10.0 mi SSE 8.1 mph 18.4 mph N/A   Clear
2:54 PM 80.1 °F 39.9 °F 24% 30.21 in 10.0 mi SSE 9.2 mph 17.3 mph N/A   Partly Cloudy
3:54 PM 81.0 °F 43.0 °F 26% 30.20 in 10.0 mi SE 10.4 mph 19.6 mph N/A   Clear
4:54 PM 80.1 °F 44.1 °F 28% 30.20 in 10.0 mi SSE 10.4 mph - N/A   Clear
5:54 PM 79.0 °F 42.1 °F 27% 30.20 in 10.0 mi ESE 9.2 mph - N/A   Clear
6:54 PM 78.1 °F 45.0 °F 31% 30.21 in 10.0 mi SSE 9.2 mph - N/A   Clear
7:54 PM 73.9 °F 46.0 °F 37% 30.22 in 10.0 mi SSE 5.8 mph - N/A   Clear
8:54 PM 70.0 °F 46.9 °F 44% 30.22 in 10.0 mi Calm Calm - N/A   Clear
9:54 PM 66.0 °F 48.0 °F 52% 30.24 in 10.0 mi Calm Calm - N/A   Clear
10:54 PM 61.0 °F 48.9 °F 64% 30.25 in 9.0 mi Calm Calm - N/A   Clear
11:54 PM 59.0 °F 50.0 °F 72% 30.26 in 8.0 mi Calm Calm - N/A   Clear